Погода в Краснофарфорном

Россия / Новгородская область     59°08′03″N   31°51′27″E
темп.,
°C
ветер,
м/с
пор.,
м/с
влажн.,
%
обл.,
%
осадки,
мм/ч
давл.,
гПа
погр.,
м
23 апреля, пт
пт2300:00+8ю3978100 0.3 1005491
03:00+6ююз2792100 1.1 1006349
06:00+5ююз3889100 0.0 1006418
09:00+6ююз4772100 0.0 1006862
12:00+7ю5954100 0.0 10071567
15:00+8ююз6115099 0.3 10072031
18:00+8ююз49505 0.3 10071945
21:00+4ююз49745 0.3 1008547
24 апреля, сб
сб2400:00+1ююв26887 0.0 1008132
03:000ю26955 0.0 1007165
06:00+1ююз269199 0.0 1007283
09:00+3зюз347289 0.1 1007707
12:00+5юз4453100 0.0 10071573
15:00+5юз3453100 0.1 10071452
18:00+5ююз345095 0.0 10071316
21:00+1ю22815 0.0 100637
25 апреля, вс
вс2500:000зюз23945 0.0 100649
03:00−1юз23967 0.0 100664
06:00−1юз2496100 0.0 1006133
09:00+3ююз237085 0.0 1006805
12:00+5юз2355100 0.1 10061413
15:00+5зюз236091 0.1 10071000
18:00+6зюз235691 0.3 10061194
21:00+1юз2787100 0.4 1007155
26 апреля, пн
пн2600:000зюз269284 0.0 1007123
03:00−1зюз2597100 0.0 1007125
06:00−1юз2596100 0.0 1007179
09:00+4зюз3570100 0.0 1007817
12:00+5юз4561100 0.1 10081352
15:00+6юз4558100 0.1 10081394
18:00+4юз3565100 0.0 1008897
21:00+2юз2572100 0.0 1008135
27 апреля, вт
вт2700:00−1юз228387 0.0 100735
03:00−1юз228541 0.0 100731
06:00−1юз248264 0.0 100798
09:00+3зюз3567100 0.0 1007527
12:00+5з466692 0.1 10081206
15:00+5з366385 0.1 10091067
18:00+6зсз356686 0.0 10091035
21:00+3з2593100 0.1 1010475